Quillayute, WA

4:46 AM PST on February 24, 2018 (GMT -0800)
Quillayute

Weather History for KUIL - July, 2012

Change the Weather History Date:

Sunday, July 8, 2012

  Actual Average Record
Temperature  
Mean Temperature 60 °F 58 °F  
Max Temperature 64 °F 67 °F 82 °F (1968)
Min Temperature 55 °F 50 °F 42 °F (1982)
Degree Days  
Heating Degree Days 5 7  
Month to date heating degree days 59  
Since 1 June heating degree days 353  
Since 1 July heating degree days 59  
Cooling Degree Days 0 0  
Month to date cooling degree days 0  
Year to date cooling degree days 4  
Since 1 June cooling degree days 3  
Growing Degree Days 9 (Base 50)    
Moisture  
Dew Point 52 °F    
Average Humidity 80    
Maximum Humidity 89    
Minimum Humidity 65    
Precipitation  
Precipitation 0.00 in 0.08 in 1.72 in (2005)
Month to date precipitation 0.62  
Year to date precipitation 52.87  
Sea Level Pressure  
Sea Level Pressure 30.10 in    
Wind  
Wind Speed 7 mph (NNW)    
Max Wind Speed 15 mph    
Max Gust Speed 18 mph    
Visibility 9 miles    
Events      
T = Trace of Precipitation, MM = Missing Value Source: NWS Daily Summary

Daily Weather History Graph

Daily Weather History Graph

Search for Another Location

Airport or City:

Trip Planner

Search our weather history database for the weather conditions in past years. The results will help you decide how hot, cold, wet, or windy it might be!

Date:

Astronomy

Jul. 08, 2012 Rise Set
Actual Time 5:28 AM PDT 9:17 PM PDT
Civil Twilight 4:48 AM PDT 9:57 PM PDT
Nautical Twilight 3:53 AM PDT 10:52 PM PDT
Astronomical Twilight 2:31 AM PDT 12:12 AM PDT
Moon 11:36 PM PDT (7/8) 11:31 AM PDT (7/8)
Length of Visible Light 17h 09m
Length of Day
15h 49m
Waning Gibbous, 72% of the Moon is Illuminated
Jul 8
Waning Gibbous
Jul 10
Last Quarter
Jul 18
New
Jul 26
First Quarter
Aug 1
Full

Hourly Weather History & Observations

Time (PDT) Temp. Dew Point Humidity Pressure Visibility Wind Dir Wind Speed Gust Speed Precip Events Conditions
12:53 AM 55.0 °F 51.1 °F 86% 30.11 in 10.0 mi Calm Calm - N/A   Overcast
1:53 AM 55.0 °F 51.1 °F 86% 30.10 in 10.0 mi North 4.6 mph - N/A   Overcast
2:53 AM 55.0 °F 51.1 °F 86% 30.10 in 10.0 mi NNW 3.5 mph - N/A   Overcast
3:53 AM 55.0 °F 51.1 °F 86% 30.10 in 10.0 mi North 5.8 mph - N/A   Overcast
4:53 AM 55.0 °F 51.1 °F 86% 30.09 in 8.0 mi North 3.5 mph - N/A   Overcast
5:53 AM 55.0 °F 51.1 °F 86% 30.10 in 6.0 mi North 5.8 mph - N/A   Overcast
6:53 AM 55.0 °F 52.0 °F 89% 30.10 in 6.0 mi NW 6.9 mph - N/A   Overcast
7:53 AM 55.0 °F 52.0 °F 89% 30.12 in 7.0 mi NNW 5.8 mph - N/A   Overcast
8:53 AM 55.9 °F 52.0 °F 87% 30.12 in 8.0 mi NNW 8.1 mph - N/A   Overcast
9:53 AM 57.9 °F 52.0 °F 81% 30.12 in 8.0 mi North 5.8 mph - N/A   Overcast
10:53 AM 59.0 °F 52.0 °F 78% 30.11 in 10.0 mi North 6.9 mph - N/A   Overcast
11:22 AM 60.8 °F 53.6 °F 77% 30.11 in 10.0 mi Variable 5.8 mph - N/A   Overcast
11:53 AM 62.1 °F 54.0 °F 75% 30.11 in 10.0 mi WNW 6.9 mph - N/A   Mostly Cloudy
12:36 PM 62.6 °F 53.6 °F 72% 30.11 in 10.0 mi WNW 9.2 mph - N/A   Scattered Clouds
12:53 PM 63.0 °F 54.0 °F 72% 30.11 in 10.0 mi NW 5.8 mph - N/A   Partly Cloudy
1:53 PM 63.0 °F 54.0 °F 72% 30.10 in 10.0 mi Variable 5.8 mph 16.1 mph N/A   Clear
2:53 PM 64.0 °F 54.0 °F 70% 30.09 in 10.0 mi NNW 8.1 mph - N/A   Clear
3:53 PM 63.0 °F 53.1 °F 70% 30.09 in 10.0 mi NNW 10.4 mph - N/A   Clear
4:53 PM 62.1 °F 53.1 °F 72% 30.08 in 10.0 mi NNW 12.7 mph - N/A   Clear
5:53 PM 62.1 °F 52.0 °F 70% 30.07 in 10.0 mi NW 11.5 mph - N/A   Clear
6:53 PM 60.1 °F 52.0 °F 75% 30.07 in 10.0 mi NNW 13.8 mph 18.4 mph N/A   Scattered Clouds
7:07 PM 57.2 °F 51.8 °F 82% 30.06 in 10.0 mi Variable 4.6 mph - N/A   Mostly Cloudy
7:53 PM 57.0 °F 51.1 °F 81% 30.07 in 10.0 mi NNW 10.4 mph - N/A   Overcast
8:53 PM 55.9 °F 50.0 °F 80% 30.07 in 10.0 mi NNW 8.1 mph - N/A   Overcast
9:53 PM 55.9 °F 50.0 °F 80% 30.09 in 10.0 mi NW 4.6 mph - N/A   Overcast
10:40 PM 55.4 °F 51.8 °F 88% 30.09 in 10.0 mi NW 6.9 mph - N/A   Overcast
10:53 PM 55.0 °F 51.1 °F 86% 30.10 in 10.0 mi NNW 6.9 mph - N/A   Overcast
11:53 PM 55.0 °F 51.1 °F 86% 30.09 in 10.0 mi North 6.9 mph - N/A   Overcast